This is the latest recevied weather packets stored in our database for station/object W0AVQ. If no packets are shown the sender has not sent any weather packets the latest 10 day(s).
| Time | Temp. | Humidity | Pressure | Rain* | Wind** | Luminosity | Snow |
|---|---|---|---|---|---|---|---|
| 1778016306 | 12.22° C | 99% | 1009.7 hPa | 0 mm | - | 64 W/m² | - |
| 1778016003 | 12.78° C | 99% | 1009.7 hPa | 1.27 mm | - | 57 W/m² | - |
| 1778015701 | 12.78° C | 99% | 1009.6 hPa | 1.27 mm | - | 38 W/m² | - |
| 1778015397 | 12.78° C | 99% | 1009.4 hPa | 1.78 mm | - | 47 W/m² | - |
| 1778015094 | 13.33° C | 99% | 1009.6 hPa | 3.05 mm | - | 44 W/m² | - |
| 1778014790 | 13.33° C | 99% | 1009.4 hPa | 1.27 mm | - | 55 W/m² | - |
| 1778014489 | 13.33° C | 99% | 1009.4 hPa | 1.78 mm | - | 45 W/m² | - |
| 1778014185 | 13.33° C | 99% | 1009.4 hPa | 3.56 mm | - | 31 W/m² | - |
| 1778013884 | 13.33° C | 99% | 1009 hPa | 3.05 mm | - | 29 W/m² | - |
| 1778013581 | 13.33° C | 99% | 1009.4 hPa | 3.05 mm | - | 32 W/m² | - |
| 1778013277 | 13.89° C | 99% | 1009.4 hPa | 3.05 mm | - | 31 W/m² | - |
| 1778012973 | 13.89° C | 99% | 1009.4 hPa | 3.05 mm | - | 40 W/m² | - |
| 1778012670 | 13.89° C | 99% | 1009.2 hPa | 3.05 mm | - | 34 W/m² | - |
| 1778012366 | 13.89° C | 99% | 1009.1 hPa | 3.05 mm | - | 39 W/m² | - |
| 1778012063 | 14.44° C | 99% | 1009.2 hPa | 3.05 mm | - | 42 W/m² | - |
| 1778011761 | 14.44° C | 99% | 1009.1 hPa | 3.05 mm | - | 63 W/m² | - |
| 1778011458 | 14.44° C | 99% | 1009.1 hPa | 3.05 mm | - | 53 W/m² | - |
| 1778011154 | 15° C | 99% | 1009 hPa | 4.83 mm | - | 52 W/m² | - |
| 1778010851 | 14.44° C | 99% | 1009.1 hPa | 3.56 mm | - | 59 W/m² | - |
| 1778010548 | 15° C | 99% | 1008.9 hPa | 3.05 mm | - | 55 W/m² | - |
| 1778010246 | 15.56° C | 99% | 1008.8 hPa | 4.32 mm | - | 52 W/m² | - |
| 1778009946 | 16.11° C | 99% | 1008.8 hPa | 4.32 mm | - | 46 W/m² | - |
| 1778009644 | 16.11° C | 99% | 1008.7 hPa | 4.83 mm | - | 29 W/m² | - |
| 1778009342 | 16.67° C | 99% | 1009.1 hPa | 1.78 mm | - | 29 W/m² | - |
| 1778009039 | 17.22° C | 99% | 1008.8 hPa | 0 mm | - | 23 W/m² | - |
* Rain latest hour (hover to see other rain measurements)
** Current wind speed in m/s (hover to see current wind gust speed)